ASTRA 1KR

Last updated on Thu Sep 10 2026 00:02:55 GMT+0000 (Coordinated Universal Time)

1 29055U 06012A 26251.87653999 .00000098 00000+0 00000+0 0 9997 2 29055 0.6844 82.7320 0003439 88.3343 151.4111 1.00270999 46534
UTC large
Height (km)
Speed (km/s)
/
Latitude / Longitude
Inclination (degrees)
Orbital Period (minutes)
Azimuth
Elevation
Range (km)
Doppler Factor

Next 0 passes for location: London (51.5072 / 0.1276)

No passes found over London.
ASTRA 1KR